Wetbulb
47.67 47.46 47.27 47.10 47.01 47.06 47.13 47.29 47.44 47.52 47.62 47.70 47.71 47.85 47.97 47.84 47.70 47.83 47.93 48.11 47.94 47.93 48.05 48.26 48.41 48.67 48.93 49.19 49.19 49.04 49.04 48.99 48.90 48.78 48.58 48.30 48.11 48.06 48.05 47.92 47.78 47.61 47.31 47.06 46.87 46.66 46.39 46.29 45.98 45.58 45.12 45.08 44.84 44.75 44.74 44.80 44.82 44.60 44.30 44.04 43.83 43.72 43.69 43.40 43.20 43.11 43.12 43.03 42.92
47.61 47.41 47.14 46.72 46.56 46.54 46.63 46.68 46.86 47.05 47.24 47.31 47.32 47.32 47.32 47.19 46.98 47.06 47.31 47.61 47.76 47.93 47.99 48.06 48.41 48.53 48.60 48.82 48.95 48.86 48.73 48.64 48.52 48.48 48.31 48.13 48.12 47.99 47.88 47.71 47.70 47.62 47.48 47.29 47.02 46.63 46.38 46.24 45.87 45.43 45.00 44.86 44.68 44.48 44.48 44.85 44.92 44.62 44.20 44.07 43.97 43.89 43.82 43.38 43.33 43.36 43.39 43.17 43.06
47.43 47.18 46.99 46.73 46.57 46.24 46.07 45.95 46.25 46.63 46.91 46.97 46.90 46.81 46.62 46.43 46.30 46.25 46.49 46.93 47.53 47.73 47.76 47.56 47.94 48.14 48.29 48.43 48.52 48.60 48.54 48.31 48.24 48.07 47.94 47.85 47.85 47.79 47.72 47.56 47.44 47.49 47.38 47.25 47.13 46.86 46.53 46.43 45.94 45.46 44.95 44.59 44.48 44.29 44.22 44.70 44.80 44.48 44.12 44.04 44.04 43.89 43.64 43.22 43.50 43.58 43.48 43.07 43.13
47.14 46.89 46.64 46.47 46.27 46.09 45.91 45.68 45.83 45.97 46.07 46.05 46.14 46.10 45.98 45.90 45.90 45.99 46.24 46.77 47.01 47.09 47.17 47.26 47.63 47.87 48.01 47.98 47.95 47.91 47.94 47.94 47.80 47.58 47.40 47.35 47.45 47.53 47.53 47.45 47.26 47.17 47.20 47.19 47.05 46.91 46.76 46.58 46.05 45.56 45.14 44.97 44.69 44.43 44.28 44.45 44.68 44.49 44.20 44.24 44.24 44.10 43.85 43.54 43.79 43.75 43.57 43.31 43.42
46.87 46.79 46.58 46.37 46.19 46.04 45.97 45.82 45.65 45.61 45.56 45.53 45.25 45.13 45.22 45.43 45.65 45.81 46.01 46.06 46.10 46.42 46.79 47.17 47.16 47.26 47.30 47.26 47.12 47.12 47.12 47.20 47.08 46.98 46.81 46.92 47.03 47.19 47.30 47.31 47.12 47.07 47.08 47.07 46.92 46.74 46.66 46.52 45.84 45.45 45.33 45.23 44.79 44.64 44.78 45.00 44.82 44.58 44.39 44.37 44.38 44.24 44.01 43.82 43.85 43.89 43.78 43.57 43.61
46.61 46.64 46.67 46.61 46.39 46.23 46.08 45.91 45.73 45.54 45.37 45.18 44.86 44.75 44.89 45.09 45.31 45.39 45.45 45.49 45.73 46.17 46.51 46.48 46.28 46.26 46.41 46.51 46.48 46.40 46.38 46.49 46.46 46.39 46.41 46.35 46.45 46.59 46.66 46.59 46.68 46.71 46.69 46.74 46.81 46.70 46.52 46.25 45.57 45.33 45.22 45.12 45.01 45.14 45.28 45.33 44.82 44.57 44.33 44.23 44.32 44.37 44.23 44.00 43.95 43.92 43.86 43.67 43.54
46.64 46.72 46.72 46.74 46.62 46.44 46.28 46.15 45.95 45.72 45.37 44.98 44.75 44.74 44.93 45.22 45.34 45.34 45.36 45.40 45.47 45.56 45.78 45.71 45.78 45.82 45.83 45.86 45.75 45.60 45.61 45.50 45.63 45.69 45.65 45.59 45.75 45.83 45.88 45.89 46.10 46.06 46.11 46.16 46.19 46.14 46.09 45.99 45.20 44.89 44.81 44.89 44.59 44.90 45.18 45.13 44.76 44.36 44.04 43.94 44.21 44.41 44.45 44.34 44.30 44.12 43.83 43.60 43.40
47.01 47.04 47.05 46.92 46.81 46.60 46.46 46.30 45.93 45.62 45.19 44.82 44.78 44.89 45.11 45.29 45.22 45.12 45.13 45.19 45.09 45.21 45.34 45.41 45.55 45.53 45.43 45.27 45.00 44.94 44.90 44.81 44.76 44.90 44.99 44.93 45.04 45.11 45.24 45.38 45.43 45.45 45.51 45.66 45.49 45.41 45.30 45.29 44.72 44.53 44.42 44.43 44.19 44.41 44.78 45.05 44.71 44.25 43.93 43.80 44.05 44.29 44.59 44.58 44.73 44.37 43.84 43.48 43.18
47.03 47.15 47.21 47.09 46.95 46.76 46.54 46.27 45.95 45.46 45.09 44.97 44.97 45.18 45.23 45.28 45.15 45.09 44.99 44.85 45.08 45.24 45.26 45.11 45.23 45.12 45.04 44.71 44.52 44.44 44.33 44.25 44.29 44.32 44.47 44.61 44.50 44.51 44.61 44.73 44.69 44.83 44.98 45.18 45.08 45.05 44.88 44.61 44.32 44.18 44.15 43.96 43.88 44.07 44.52 44.89 44.49 44.09 43.76 43.64 43.75 44.02 44.18 44.38 44.45 44.19 43.78 43.40 43.06
46.61 46.73 46.74 46.65 46.62 46.52 46.23 45.94 45.70 45.42 45.21 45.04 45.19 45.32 45.36 45.34 45.22 45.18 45.05 44.95 45.06 44.91 44.75 44.71 44.76 44.66 44.49 44.32 44.19 44.17 44.09 44.09 44.03 44.04 44.10 44.16 44.10 44.12 44.11 44.18 44.22 44.22 44.29 44.56 44.66 44.66 44.51 44.18 44.05 44.09 44.11 44.19 44.10 44.19 44.35 44.46 44.06 43.75 43.50 43.23 43.32 43.48 43.56 43.71 43.78 43.65 43.39 42.97 42.79
46.24 46.30 46.18 46.04 46.04 45.99 45.77 45.35 45.22 45.15 45.10 45.03 45.20 45.34 45.34 45.28 45.24 45.12 45.12 45.05 44.67 44.48 44.48 44.61 44.59 44.29 44.04 44.00 44.00 43.98 44.02 43.90 43.85 43.80 43.74 43.68 43.79 43.82 43.93 43.98 44.02 43.91 43.83 43.94 44.08 44.04 43.90 43.60 43.54 43.61 43.74 43.86 43.99 44.03 44.06 44.03 43.62 43.52 43.35 43.10 43.06 42.85 42.77 42.80 42.92 42.89 42.72 42.56 42.45
45.85 45.89 45.85 45.81 45.75 45.54 45.29 44.83 44.72 44.73 44.79 44.79 44.89 44.93 45.03 45.05 45.07 45.01 44.84 44.67 44.26 44.14 44.28 44.56 44.40 44.05 43.80 43.68 43.78 43.79 43.76 43.68 43.59 43.43 43.31 43.26 43.41 43.48 43.60 43.68 43.72 43.67 43.64 43.61 43.72 43.48 43.34 43.08 42.98 42.98 42.98 43.16 43.29 43.36 43.37 43.38 43.14 43.05 42.95 43.00 42.71 42.45 42.07 41.90 42.15 42.15 42.14 42.15 41.91
45.51 45.48 45.49 45.44 45.39 45.07 44.82 44.50 44.36 44.37 44.36 44.41 44.46 44.58 44.60 44.69 44.79 44.65 44.41 43.99 43.82 43.78 43.89 44.12 44.04 43.79 43.56 43.37 43.45 43.41 43.35 43.21 43.16 43.00 42.87 42.86 43.02 43.09 43.12 43.19 43.29 43.28 43.18 43.16 43.24 43.00 42.77 42.54 42.47 42.35 42.19 42.23 42.35 42.51 42.60 42.56 42.38 42.23 42.09 41.95 41.86 41.60 41.29 41.24 41.33 41.44 41.47 41.40 41.05
45.24 45.20 45.13 45.18 44.95 44.71 44.41 44.15 43.96 43.96 43.95 44.00 44.13 44.25 44.24 44.30 44.34 44.19 43.86 43.50 43.36 43.30 43.35 43.42 43.49 43.38 43.31 43.14 43.05 42.93 42.81 42.68 42.58 42.53 42.45 42.43 42.58 42.61 42.69 42.76 43.06 43.06 42.88 42.71 42.74 42.51 42.23 41.86 41.90 41.77 41.57 41.45 41.45 41.66 41.78 41.73 41.61 41.44 41.32 41.01 40.72 40.49 40.34 40.25 40.38 40.35 40.23 40.18 40.06
44.91 44.91 44.84 44.79 44.54 44.24 43.94 43.72 43.53 43.57 43.57 43.58 43.72 43.86 43.78 43.64 43.73 43.61 43.34 43.05 42.94 42.83 42.82 42.74 42.71 42.79 42.94 42.85 42.62 42.50 42.34 42.26 42.11 41.99 41.94 42.03 42.09 42.21 42.25 42.27 42.58 42.70 42.68 42.39 42.27 41.98 41.77 41.54 41.41 41.18 41.02 40.73 40.76 40.96 41.04 41.12 41.10 40.93 40.72 40.39 40.07 39.72 39.62 39.45 39.32 39.13 39.03 38.98 39.00
44.44 44.44 44.44 44.24 43.92 43.67 43.45 43.26 43.11 43.03 43.00 43.08 43.33 43.32 43.17 43.03 43.09 43.05 42.83 42.52 42.43 42.33 42.21 42.08 42.04 42.17 42.29 42.42 42.34 42.17 41.93 41.81 41.66 41.54 41.45 41.36 41.57 41.67 41.81 41.86 41.49 41.41 41.59 41.79 41.49 41.30 41.28 41.43 41.04 40.73 40.45 40.19 40.17 40.27 40.38 40.49 40.48 40.32 40.13 39.99 39.72 39.45 39.09 38.73 38.28 37.92 37.78 37.96 37.94
43.82 43.82 43.82 43.61 43.25 43.05 42.83 42.72 42.58 42.51 42.55 42.60 42.73 42.76 42.61 42.49 42.52 42.43 42.27 42.10 41.88 41.68 41.53 41.55 41.60 41.60 41.60 41.71 41.86 41.78 41.51 41.31 41.20 41.06 40.97 40.99 41.13 41.21 41.41 41.70 40.73 39.81 39.21 39.29 39.67 40.08 40.32 40.43 40.44 40.33 40.20 39.90 39.68 39.67 39.70 39.85 39.83 39.73 39.64 39.59 39.41 38.96 38.50 37.92 37.06 36.56 36.38 36.96 37.22
43.21 43.21 43.21 42.93 42.69 42.49 42.32 42.26 42.17 42.12 42.15 42.19 42.23 42.25 42.24 42.14 41.94 41.84 41.81 41.86 41.53 41.31 41.12 41.09 41.25 41.25 41.17 41.09 41.29 41.24 41.12 40.82 40.70 40.67 40.68 40.77 40.89 40.96 41.09 41.46 40.45 39.01 37.79 37.06 37.60 38.27 38.77 39.09 39.59 39.75 39.69 39.51 39.37 39.31 39.36 39.48 39.47 39.47 39.43 39.37 39.00 38.19 37.02 35.80 35.34 35.43 36.06 37.10 37.46
42.63 42.65 42.53 42.34 42.10 42.01 41.91 41.80 41.71 41.75 41.70 41.81 41.84 41.80 41.76 41.76 41.56 41.41 41.29 41.33 41.32 41.13 40.87 40.68 40.76 40.79 40.84 40.76 40.76 40.76 40.76 40.57 40.41 40.41 40.41 40.57 40.60 40.63 40.75 41.12 39.85 38.17 36.59 35.64 36.12 36.72 37.47 38.09 38.46 38.77 38.96 38.87 38.95 39.05 39.13 39.18 39.13 39.08 38.93 38.53 37.53 36.16 34.89 34.39 34.89 35.92 37.05 37.74 37.87
42.17 42.12 41.94 41.82 41.69 41.55 41.48 41.44 41.43 41.43 41.46 41.45 41.45 41.42 41.35 41.35 41.31 41.03 40.84 40.79 40.98 40.94 40.72 40.45 40.25 40.21 40.29 40.33 40.29 40.29 40.25 40.25 40.18 40.09 40.05 40.17 40.31 40.31 40.51 40.71 38.78 36.75 35.03 34.42 34.86 35.58 36.45 37.56 37.91 38.06 38.15 38.22 38.11 38.06 38.13 38.30 38.22 37.74 37.11 36.96 36.40 35.40 34.94 35.47 36.28 37.06 37.69 38.06 38.11
41.83 41.73 41.59 41.49 41.35 41.28 41.16 41.24 41.23 41.19 41.14 41.06 41.07 40.96 40.96 41.00 40.88 40.72 40.61 40.64 40.71 40.64 40.37 40.10 39.86 39.74 39.70 39.70 39.58 39.58 39.70 39.78 39.78 39.65 39.69 39.72 39.95 40.27 40.47 40.56 38.02 35.76 34.39 34.37 34.72 34.99 35.74 37.15 37.57 37.70 37.55 37.24 36.47 36.47 36.85 37.03 36.89 36.62 36.61 36.92 36.86 36.87 37.11 37.71 38.10 38.24 38.39 38.49 38.53
41.56 41.49 41.42 41.24 41.16 41.05 41.04 41.00 40.99 40.91 40.76 40.72 40.64 40.65 40.65 40.57 40.45 40.45 40.53 40.61 40.49 40.17 39.86 39.62 39.47 39.39 39.27 39.15 39.07 39.06 39.14 39.23 39.30 39.34 39.33 39.40 39.57 39.79 40.01 40.12 37.20 35.00 33.80 33.83 34.21 34.29 34.69 36.11 36.45 36.36 36.04 35.61 34.60 34.94 35.82 36.24 36.35 36.55 36.85 37.11 37.27 37.65 38.08 38.61 38.75 38.88 39.00 39.19 39.15
41.35 41.31 41.16 41.09 41.01 40.89 40.81 40.73 40.57 40.45 40.33 40.25 40.29 40.21 40.21 40.06 40.05 40.17 40.17 40.09 39.94 39.66 39.51 39.27 39.24 39.16 39.03 38.98 38.82 38.77 38.65 38.54 38.63 38.87 38.98 39.10 39.15 39.32 39.56 39.84 36.72 35.00 34.42 34.69 34.99 34.70 34.36 34.61 34.42 34.18 34.08 34.25 33.62 34.21 35.17 35.68 35.94 36.02 36.14 36.44 36.93 37.38 37.76 38.29 38.69 38.97 39.13 39.32 39.41
41.09 40.93 40.89 40.69 40.65 40.53 40.41 40.29 40.10 39.98 39.82 39.82 39.82 39.82 39.74 39.66 39.66 39.66 39.59 39.43 39.27 39.15 39.03 38.87 38.95 38.83 38.79 38.74 38.61 38.41 38.21 37.94 37.95 38.15 38.36 38.52 38.51 38.66 38.83 39.06 37.55 36.89 36.59 36.22 36.76 36.89 36.75 36.50 35.51 35.02 34.94 35.09 35.41 36.00 36.44 36.23 36.42 36.25 36.04 36.18 36.73 37.21 37.63 38.09 38.62 38.86 39.02 39.27 39.35
40.65 40.53 40.37 40.21 40.14 40.06 39.94 39.78 39.58 39.47 39.43 39.47 39.55 39.43 39.35 39.24 39.23 39.12 38.92 38.72 38.68 38.55 38.58 38.49 38.53 38.42 38.31 38.23 38.19 38.12 38.00 37.73 37.56 37.51 37.51 37.65 37.80 37.82 37.87 37.72 37.54 36.94 36.24 35.85 37.69 38.67 38.91 38.49 37.74 37.06 36.74 36.93 37.38 37.40 37.06 36.06 35.97 35.85 35.92 36.27 36.74 37.19 37.54 37.95 38.16 38.42 38.90 39.24 39.48
40.06 39.90 39.74 39.70 39.62 39.46 39.39 39.27 39.15 39.11 39.15 39.23 39.19 39.07 38.92 38.84 38.77 38.57 38.33 38.08 38.08 38.11 38.10 38.01 37.89 37.90 37.88 37.74 37.66 37.66 37.59 37.47 37.34 37.16 36.94 36.87 36.99 37.07 37.10 37.10 37.23 36.16 35.18 35.77 37.93 39.08 39.48 39.65 39.60 38.92 38.18 37.66 37.51 37.12 36.64 36.39 35.22 35.66 36.65 36.97 37.28 37.39 37.48 37.74 38.21 38.80 39.06 39.23 39.46
39.18 39.10 39.03 39.19 39.07 38.92 38.81 38.89 38.85 38.84 38.80 38.76 38.61 38.53 38.37 38.41 38.18 37.98 37.73 37.53 37.63 37.70 37.70 37.62 37.50 37.53 37.55 37.33 37.16 36.99 36.87 36.89 36.95 36.88 36.74 36.56 36.43 36.40 36.46 36.58 37.16 36.47 35.82 36.88 38.60 39.40 39.66 39.95 40.19 39.93 39.27 37.90 37.44 37.04 36.93 36.97 36.73 37.20 37.82 37.95 37.91 37.83 37.70 37.77 38.20 38.57 38.96 39.37 39.57
38.38 38.39 38.52 38.57 38.46 38.39 38.35 38.54 38.39 38.27 38.15 38.15 38.11 38.06 38.02 37.90 37.66 37.46 37.22 37.21 37.20 37.16 37.05 36.98 37.11 37.14 37.04 36.74 36.56 36.48 36.46 36.48 36.52 36.54 36.55 36.54 36.43 36.29 36.31 36.37 36.65 36.83 37.26 38.28 39.00 39.42 39.67 39.90 40.06 40.06 39.68 38.82 37.90 36.89 36.28 36.42 37.35 37.81 38.03 38.24 38.44 38.54 38.70 38.92 39.22 39.47 39.54 39.54 39.51
37.70 37.96 38.06 37.95 37.93 37.89 37.93 37.93 37.78 37.74 37.74 37.81 37.76 37.67 37.54 37.42 37.11 37.03 36.87 36.71 36.63 36.46 36.25 36.34 36.65 36.62 36.39 36.05 36.14 36.15 36.25 36.26 36.32 36.42 36.40 36.32 36.21 36.15 36.25 36.30 36.46 36.95 37.71 38.76 39.03 39.22 39.33 39.56 39.73 39.88 39.84 39.59 38.39 37.68 37.45 37.50 37.64 37.85 38.10 38.27 38.82 39.16 39.41 39.51 39.63 39.47 39.21 39.08 39.66
37.39 37.58 37.56 37.54 37.43 37.44 37.44 37.44 37.44 37.44 37.44 37.50 37.41 37.21 37.01 36.80 36.64 36.53 36.34 36.19 36.04 36.02 36.07 36.19 36.11 35.92 35.73 35.72 35.79 35.83 35.87 36.03 36.27 36.28 36.17 35.88 35.78 35.87 36.05 36.35 36.29 36.64 37.30 38.37 38.65 38.92 39.11 39.31 39.56 39.76 40.00 40.12 39.03 37.99 37.30 37.67 37.91 38.19 38.46 38.51 38.76 39.01 39.28 39.53 39.57 39.56 39.67 39.79 40.35
37.16 37.31 37.29 37.19 37.05 37.02 37.06 37.18 37.21 37.25 37.20 37.08 36.92 36.71 36.43 36.23 36.14 36.07 35.98 35.91 35.91 36.11 36.27 36.28 35.88 35.57 35.57 35.76 35.68 35.68 35.71 35.80 35.97 35.98 35.90 35.67 35.72 35.81 35.92 36.09 36.01 36.16 36.79 38.03 38.36 38.72 38.99 39.31 39.60 39.80 40.08 40.28 39.41 38.41 37.63 37.80 38.06 38.41 38.62 38.83 39.19 39.46 39.60 39.67 39.53 39.74 40.05 40.40 40.84
37.08 37.09 36.97 36.76 36.58 36.59 36.68 36.84 36.87 36.87 36.79 36.60 36.39 36.22 36.01 35.88 35.93 35.95 36.00 36.04 35.99 35.95 35.90 35.76 35.44 35.28 35.30 35.44 35.47 35.54 35.53 35.60 35.65 35.70 35.74 35.72 35.56 35.58 35.63 35.67 35.63 35.88 36.55 37.87 38.31 38.72 39.04 39.31 39.56 39.88 40.08 40.33 39.57 38.77 38.18 38.20 38.45 38.79 39.05 39.14 39.23 39.41 39.58 39.58 39.71 39.95 40.27 40.56 40.40
36.85 36.68 36.49 36.28 36.22 36.32 36.40 36.53 36.53 36.44 36.36 36.17 36.04 35.83 35.72 35.70 35.72 35.84 35.88 35.97 35.83 35.65 35.40 35.22 35.02 34.91 34.88 35.01 35.12 35.22 35.28 35.43 35.51 35.69 35.80 35.83 35.53 35.35 35.23 35.17 35.32 35.99 36.94 37.88 38.36 38.76 39.04 39.24 39.52 39.81 40.05 40.30 39.56 38.94 38.65 38.79 38.71 38.87 39.13 39.05 38.81 38.96 39.23 39.47 39.44 39.28 39.27 39.30 39.08
36.40 36.24 36.09 36.00 36.02 36.04 36.09 36.18 36.17 36.09 35.93 35.67 35.57 35.54 35.54 35.46 35.41 35.38 35.44 35.62 35.63 35.57 35.39 35.28 35.16 35.09 35.13 35.21 35.08 35.05 35.09 35.28 35.39 35.43 35.39 35.37 35.22 34.94 34.69 34.47 34.79 35.90 37.13 37.93 38.33 38.65 38.89 39.13 39.37 39.61 39.85 39.97 39.39 38.93 38.73 38.59 38.16 38.14 38.17 38.09 38.06 38.17 38.40 38.62 38.73 38.64 38.54 38.43 38.35
36.04 35.91 35.85 35.84 35.85 35.79 35.83 35.83 35.79 35.63 35.38 35.11 35.11 35.20 35.29 35.28 35.12 35.15 35.20 35.50 35.52 35.43 35.32 35.36 35.44 35.44 35.43 35.43 35.40 35.18 35.00 34.88 34.87 34.94 34.98 34.93 34.65 34.40 34.19 34.05 34.62 35.82 37.01 37.67 38.06 38.34 38.62 38.86 39.18 39.45 39.52 39.45 38.72 38.37 38.13 37.96 37.57 37.35 37.27 37.35 37.52 37.77 38.07 38.41 38.77 38.93 39.02 39.12 39.29
36.07 35.93 35.73 35.56 35.56 35.52 35.45 35.40 35.28 35.11 34.86 34.67 34.71 34.80 34.96 35.02 35.12 35.22 35.39 35.55 35.33 35.08 34.97 35.05 35.18 35.18 35.13 35.03 34.99 34.98 34.86 34.58 34.43 34.42 34.45 34.42 34.05 33.73 33.49 33.55 34.26 35.37 36.60 37.33 37.75 38.03 38.38 38.70 38.97 39.25 39.17 38.67 37.97 37.57 37.38 37.12 36.94 37.05 37.21 37.50 37.64 37.99 38.35 38.62 39.15 39.51 39.80 39.90 39.89
36.29 35.96 35.63 35.33 35.21 35.16 35.08 34.99 34.81 34.53 34.35 34.35 34.49 34.56 34.68 34.76 34.96 35.20 35.37 35.44 34.92 34.62 34.50 34.62 34.59 34.55 34.49 34.46 34.48 34.58 34.65 34.55 34.12 33.90 33.83 33.86 33.56 33.23 33.08 33.30 33.87 34.82 35.92 36.97 37.43 37.86 38.18 38.57 38.97 39.11 38.82 37.68 37.08 36.97 37.00 37.04 37.01 37.32 37.60 37.76 37.92 38.25 38.76 39.08 39.42 39.80 40.04 40.13 40.07
36.32 35.96 35.53 35.14 34.90 34.78 34.74 34.64 34.42 34.16 34.04 34.22 34.39 34.57 34.66 34.75 34.71 34.93 35.14 35.21 34.57 34.26 34.10 34.18 34.03 34.13 34.19 34.35 34.37 34.44 34.53 34.29 34.02 33.69 33.44 33.47 33.53 33.31 33.15 33.29 33.77 34.48 35.42 36.56 37.22 37.69 38.09 38.44 38.84 39.02 38.56 37.25 36.86 36.77 36.79 36.70 36.93 37.24 37.45 37.65 37.94 38.36 38.81 39.27 39.70 40.02 40.38 40.67 40.73
36.13 35.93 35.53 35.03 34.76 34.56 34.44 34.28 34.13 34.06 34.05 34.16 34.34 34.46 34.61 34.64 34.59 34.80 35.07 35.17 34.69 34.28 33.96 33.75 33.74 33.91 34.19 34.36 34.20 34.05 33.93 34.01 34.00 33.89 33.64 33.38 33.66 33.77 33.73 33.51 33.76 34.30 35.19 36.32 37.06 37.53 37.92 38.40 38.79 39.02 38.67 37.58 36.99 36.78 36.77 36.83 36.98 37.09 37.31 37.46 37.72 38.25 38.89 39.68 40.03 40.38 40.71 41.02 41.21
35.96 35.79 35.47 35.00 34.68 34.44 34.23 34.03 34.06 34.15 34.28 34.30 34.25 34.29 34.41 34.57 34.67 34.91 35.07 35.09 34.80 34.46 34.06 33.73 33.77 33.95 34.21 34.25 33.75 33.44 33.29 33.48 33.74 33.83 33.81 33.59 33.79 34.22 34.35 33.82 33.81 34.27 35.06 36.18 36.94 37.49 37.89 38.33 38.72 38.97 38.74 37.47 37.20 37.07 37.13 37.28 37.21 37.30 37.37 37.58 38.04 38.55 39.28 40.24 40.43 40.50 40.46 40.35 40.78
35.82 35.62 35.25 34.93 34.71 34.50 34.22 34.02 34.09 34.31 34.46 34.44 34.34 34.38 34.55 34.85 34.84 34.89 34.80 34.63 34.45 34.25 34.00 33.74 33.88 33.98 34.04 33.83 33.29 32.93 32.73 32.93 33.31 33.59 33.73 33.71 33.79 34.18 34.29 33.88 33.87 34.25 34.90 35.88 36.82 37.43 37.98 38.38 38.74 38.95 38.78 37.68 37.37 37.38 37.41 37.52 37.28 37.15 37.23 37.70 38.32 38.91 39.38 39.90 39.91 39.84 39.74 39.67 40.18
MSLP
1021.37 1021.37 1021.33 1021.29 1021.21 1021.17 1021.09 1020.97 1020.89 1020.81 1020.73 1020.57 1020.41 1020.29 1020.21 1020.05 1019.93 1019.77 1019.65 1019.57 1019.41 1019.29 1019.17 1019.05 1018.93 1018.81 1018.69 1018.61 1018.53 1018.41 1018.33 1018.21 1018.17 1018.09 1018.05 1018.01 1017.93 1017.85 1017.81 1017.77 1017.69 1017.65 1017.61 1017.53 1017.53 1017.49 1017.45 1017.37 1017.37 1017.29 1017.21 1017.21 1017.13 1017.05 1016.97 1016.89 1016.85 1016.77 1016.65 1016.61 1016.49 1016.37 1016.33 1016.25 1016.21 1016.13 1016.09 1016.05 1016.01
1021.25 1021.25 1021.29 1021.25 1021.21 1021.17 1021.09 1020.97 1020.89 1020.81 1020.69 1020.61 1020.49 1020.37 1020.25 1020.13 1020.01 1019.81 1019.65 1019.53 1019.41 1019.29 1019.13 1018.97 1018.85 1018.73 1018.61 1018.49 1018.41 1018.33 1018.21 1018.13 1018.05 1017.97 1017.93 1017.81 1017.77 1017.69 1017.65 1017.57 1017.49 1017.49 1017.41 1017.33 1017.29 1017.21 1017.17 1017.09 1017.05 1017.01 1016.93 1016.85 1016.85 1016.77 1016.65 1016.61 1016.61 1016.49 1016.37 1016.21 1016.13 1016.09 1015.97 1015.89 1015.77 1015.69 1015.65 1015.65 1015.65
1021.21 1021.21 1021.21 1021.17 1021.13 1021.09 1021.01 1020.89 1020.77 1020.65 1020.57 1020.53 1020.49 1020.37 1020.29 1020.21 1020.05 1019.89 1019.69 1019.53 1019.37 1019.21 1019.09 1018.93 1018.81 1018.65 1018.53 1018.41 1018.33 1018.21 1018.13 1018.05 1017.93 1017.85 1017.77 1017.65 1017.57 1017.49 1017.45 1017.37 1017.33 1017.25 1017.21 1017.17 1017.09 1017.01 1016.93 1016.85 1016.81 1016.73 1016.65 1016.53 1016.49 1016.37 1016.29 1016.21 1016.21 1016.13 1016.01 1015.89 1015.81 1015.77 1015.65 1015.49 1015.37 1015.37 1015.33 1015.29 1015.21
1021.21 1021.17 1021.17 1021.13 1021.09 1020.97 1020.93 1020.89 1020.77 1020.65 1020.57 1020.53 1020.49 1020.37 1020.25 1020.13 1020.01 1019.85 1019.65 1019.49 1019.33 1019.17 1019.01 1018.89 1018.73 1018.61 1018.45 1018.37 1018.25 1018.17 1018.09 1017.93 1017.85 1017.73 1017.65 1017.49 1017.41 1017.33 1017.25 1017.21 1017.13 1017.09 1017.01 1016.93 1016.89 1016.81 1016.77 1016.69 1016.61 1016.53 1016.37 1016.21 1016.13 1016.05 1015.93 1015.85 1015.85 1015.81 1015.65 1015.53 1015.49 1015.41 1015.29 1015.13 1015.09 1015.05 1015.01 1014.93 1014.85
1021.09 1021.09 1021.09 1021.09 1020.97 1020.93 1020.93 1020.85 1020.77 1020.65 1020.53 1020.53 1020.41 1020.29 1020.17 1020.05 1019.89 1019.73 1019.57 1019.41 1019.21 1019.09 1018.93 1018.85 1018.69 1018.57 1018.45 1018.37 1018.21 1018.09 1017.93 1017.85 1017.77 1017.65 1017.49 1017.37 1017.25 1017.17 1017.09 1016.97 1016.93 1016.81 1016.77 1016.73 1016.65 1016.61 1016.53 1016.53 1016.41 1016.25 1016.13 1016.01 1015.89 1015.77 1015.65 1015.57 1015.53 1015.45 1015.37 1015.21 1015.17 1015.09 1014.97 1014.85 1014.81 1014.73 1014.65 1014.53 1014.49
1021.09 1021.05 1021.01 1021.01 1020.93 1020.93 1020.85 1020.81 1020.69 1020.61 1020.53 1020.45 1020.29 1020.17 1020.01 1019.89 1019.77 1019.65 1019.49 1019.33 1019.13 1019.01 1018.93 1018.81 1018.69 1018.53 1018.37 1018.29 1018.13 1018.01 1017.85 1017.77 1017.65 1017.53 1017.37 1017.25 1017.09 1016.97 1016.89 1016.81 1016.73 1016.65 1016.57 1016.53 1016.41 1016.37 1016.33 1016.33 1016.21 1016.05 1015.89 1015.81 1015.61 1015.45 1015.37 1015.37 1015.29 1015.17 1015.09 1014.97 1014.85 1014.77 1014.65 1014.57 1014.45 1014.41 1014.33 1014.21 1014.13
1021.05 1020.97 1020.93 1020.89 1020.85 1020.81 1020.77 1020.69 1020.61 1020.53 1020.45 1020.33 1020.17 1019.93 1019.81 1019.69 1019.61 1019.49 1019.37 1019.21 1019.09 1018.93 1018.81 1018.69 1018.57 1018.41 1018.29 1018.13 1018.05 1017.89 1017.77 1017.65 1017.53 1017.41 1017.29 1017.09 1016.93 1016.81 1016.69 1016.61 1016.53 1016.49 1016.37 1016.29 1016.25 1016.21 1016.13 1016.09 1015.97 1015.81 1015.65 1015.49 1015.37 1015.21 1015.13 1015.09 1015.01 1014.93 1014.81 1014.65 1014.53 1014.49 1014.37 1014.25 1014.17 1014.09 1014.05 1013.89 1013.81
1020.97 1020.93 1020.85 1020.81 1020.77 1020.69 1020.65 1020.61 1020.53 1020.41 1020.29 1020.17 1019.97 1019.81 1019.65 1019.57 1019.49 1019.37 1019.25 1019.09 1018.97 1018.81 1018.69 1018.57 1018.41 1018.29 1018.21 1018.05 1017.93 1017.81 1017.65 1017.49 1017.37 1017.25 1017.13 1016.93 1016.81 1016.69 1016.57 1016.49 1016.37 1016.29 1016.21 1016.17 1016.09 1016.01 1015.93 1015.89 1015.77 1015.57 1015.41 1015.29 1015.13 1014.97 1014.89 1014.85 1014.81 1014.69 1014.57 1014.45 1014.29 1014.21 1014.13 1014.09 1013.97 1013.93 1013.81 1013.65 1013.61
1020.89 1020.81 1020.81 1020.73 1020.65 1020.61 1020.57 1020.53 1020.41 1020.29 1020.13 1019.97 1019.81 1019.65 1019.57 1019.45 1019.37 1019.25 1019.09 1018.93 1018.81 1018.69 1018.61 1018.45 1018.33 1018.21 1018.09 1017.93 1017.81 1017.65 1017.53 1017.37 1017.25 1017.09 1016.97 1016.85 1016.69 1016.57 1016.45 1016.37 1016.25 1016.17 1016.05 1016.01 1015.93 1015.81 1015.73 1015.65 1015.53 1015.37 1015.21 1015.09 1014.93 1014.77 1014.69 1014.69 1014.61 1014.49 1014.37 1014.25 1014.09 1013.93 1013.85 1013.81 1013.73 1013.65 1013.49 1013.45 1013.37
1020.81 1020.77 1020.69 1020.65 1020.57 1020.53 1020.45 1020.37 1020.29 1020.17 1020.01 1019.81 1019.65 1019.49 1019.41 1019.33 1019.21 1019.05 1018.93 1018.81 1018.65 1018.57 1018.45 1018.33 1018.17 1018.09 1017.93 1017.81 1017.65 1017.49 1017.37 1017.25 1017.09 1016.93 1016.85 1016.73 1016.61 1016.49 1016.37 1016.21 1016.17 1016.05 1015.93 1015.81 1015.77 1015.65 1015.53 1015.41 1015.21 1015.09 1014.93 1014.81 1014.69 1014.57 1014.49 1014.49 1014.41 1014.29 1014.13 1014.01 1013.89 1013.73 1013.61 1013.49 1013.49 1013.37 1013.25 1013.17 1013.13
1020.77 1020.65 1020.61 1020.53 1020.45 1020.41 1020.37 1020.21 1020.09 1019.93 1019.81 1019.61 1019.45 1019.33 1019.21 1019.09 1018.97 1018.85 1018.77 1018.69 1018.53 1018.37 1018.25 1018.13 1018.09 1017.93 1017.81 1017.65 1017.49 1017.37 1017.21 1017.09 1016.93 1016.81 1016.65 1016.57 1016.45 1016.33 1016.21 1016.13 1016.05 1015.93 1015.81 1015.69 1015.61 1015.53 1015.41 1015.29 1015.09 1014.93 1014.81 1014.65 1014.53 1014.41 1014.33 1014.21 1014.17 1014.09 1013.93 1013.77 1013.65 1013.57 1013.41 1013.25 1013.21 1013.21 1013.13 1013.01 1012.93
1020.65 1020.57 1020.53 1020.45 1020.37 1020.29 1020.21 1020.09 1019.93 1019.77 1019.61 1019.41 1019.29 1019.17 1019.05 1018.93 1018.81 1018.73 1018.65 1018.53 1018.37 1018.21 1018.09 1017.97 1017.93 1017.81 1017.65 1017.49 1017.37 1017.21 1017.09 1016.93 1016.81 1016.65 1016.53 1016.37 1016.25 1016.17 1016.09 1015.97 1015.89 1015.81 1015.65 1015.57 1015.49 1015.41 1015.29 1015.09 1014.93 1014.81 1014.65 1014.53 1014.45 1014.33 1014.17 1014.05 1013.93 1013.85 1013.73 1013.57 1013.49 1013.37 1013.21 1013.05 1013.05 1013.05 1013.01 1012.93 1012.81
1020.57 1020.49 1020.37 1020.29 1020.21 1020.17 1020.05 1019.93 1019.81 1019.65 1019.45 1019.29 1019.17 1019.05 1018.93 1018.81 1018.65 1018.61 1018.49 1018.37 1018.21 1018.09 1017.93 1017.89 1017.81 1017.65 1017.49 1017.37 1017.21 1017.09 1016.93 1016.81 1016.65 1016.53 1016.37 1016.21 1016.09 1015.97 1015.89 1015.81 1015.69 1015.61 1015.49 1015.41 1015.37 1015.29 1015.17 1015.01 1014.85 1014.73 1014.57 1014.41 1014.29 1014.17 1014.05 1013.93 1013.81 1013.69 1013.53 1013.37 1013.29 1013.17 1013.01 1012.89 1012.85 1012.85 1012.85 1012.81 1012.69
1020.49 1020.37 1020.25 1020.17 1020.09 1020.01 1019.93 1019.81 1019.65 1019.49 1019.29 1019.17 1019.05 1018.93 1018.81 1018.65 1018.57 1018.49 1018.37 1018.25 1018.13 1018.01 1017.89 1017.77 1017.65 1017.49 1017.37 1017.21 1017.13 1017.01 1016.85 1016.65 1016.53 1016.37 1016.21 1016.05 1015.93 1015.81 1015.65 1015.53 1015.49 1015.45 1015.37 1015.29 1015.21 1015.13 1015.05 1014.93 1014.77 1014.65 1014.49 1014.33 1014.13 1014.01 1013.93 1013.81 1013.65 1013.53 1013.41 1013.25 1013.09 1012.97 1012.85 1012.77 1012.73 1012.73 1012.73 1012.65 1012.53
1020.29 1020.21 1020.09 1020.05 1019.97 1019.85 1019.77 1019.65 1019.49 1019.37 1019.17 1019.05 1018.93 1018.85 1018.77 1018.61 1018.49 1018.37 1018.33 1018.21 1018.09 1017.93 1017.81 1017.65 1017.49 1017.37 1017.33 1017.21 1017.05 1016.89 1016.73 1016.53 1016.37 1016.21 1016.01 1015.81 1015.69 1015.57 1015.45 1015.37 1015.33 1015.25 1015.21 1015.13 1015.05 1014.97 1014.93 1014.81 1014.69 1014.57 1014.41 1014.21 1014.01 1013.89 1013.77 1013.65 1013.49 1013.37 1013.25 1013.09 1012.93 1012.81 1012.65 1012.61 1012.61 1012.61 1012.57 1012.49 1012.37
1020.17 1020.09 1019.97 1019.93 1019.81 1019.73 1019.65 1019.57 1019.41 1019.25 1019.09 1018.97 1018.89 1018.81 1018.73 1018.57 1018.45 1018.33 1018.25 1018.17 1018.01 1017.85 1017.73 1017.57 1017.45 1017.29 1017.21 1017.09 1016.93 1016.77 1016.57 1016.37 1016.21 1016.05 1015.85 1015.65 1015.49 1015.37 1015.29 1015.21 1015.13 1015.09 1015.05 1014.97 1014.89 1014.81 1014.73 1014.69 1014.61 1014.49 1014.29 1014.09 1013.93 1013.73 1013.61 1013.49 1013.33 1013.21 1013.05 1012.93 1012.81 1012.65 1012.53 1012.41 1012.41 1012.37 1012.37 1012.29 1012.21
1020.09 1019.97 1019.89 1019.81 1019.73 1019.65 1019.57 1019.49 1019.37 1019.21 1019.09 1018.97 1018.89 1018.81 1018.69 1018.53 1018.41 1018.29 1018.21 1018.09 1017.93 1017.81 1017.65 1017.49 1017.37 1017.21 1017.09 1016.89 1016.77 1016.65 1016.45 1016.21 1016.05 1015.89 1015.73 1015.53 1015.41 1015.29 1015.17 1015.05 1014.97 1014.93 1014.93 1014.89 1014.77 1014.65 1014.57 1014.53 1014.41 1014.33 1014.21 1013.97 1013.81 1013.57 1013.37 1013.25 1013.09 1012.93 1012.81 1012.65 1012.53 1012.41 1012.29 1012.21 1012.21 1012.17 1012.13 1012.09 1011.93
1019.97 1019.89 1019.81 1019.77 1019.65 1019.57 1019.49 1019.45 1019.33 1019.21 1019.09 1018.93 1018.85 1018.73 1018.61 1018.53 1018.37 1018.25 1018.17 1018.05 1017.93 1017.73 1017.53 1017.37 1017.25 1017.13 1016.97 1016.81 1016.61 1016.49 1016.33 1016.13 1015.93 1015.73 1015.61 1015.45 1015.29 1015.17 1015.05 1014.89 1014.81 1014.77 1014.73 1014.65 1014.61 1014.49 1014.37 1014.33 1014.21 1014.09 1013.93 1013.77 1013.53 1013.37 1013.17 1012.97 1012.81 1012.65 1012.49 1012.37 1012.21 1012.09 1012.05 1012.01 1011.97 1011.97 1011.93 1011.81 1011.61
1019.93 1019.81 1019.73 1019.69 1019.57 1019.49 1019.45 1019.37 1019.25 1019.13 1019.01 1018.89 1018.77 1018.65 1018.53 1018.45 1018.37 1018.21 1018.05 1017.93 1017.81 1017.65 1017.49 1017.25 1017.09 1016.97 1016.81 1016.65 1016.49 1016.33 1016.17 1016.05 1015.81 1015.61 1015.45 1015.29 1015.13 1015.01 1014.85 1014.69 1014.61 1014.57 1014.53 1014.49 1014.37 1014.29 1014.21 1014.09 1013.93 1013.81 1013.65 1013.49 1013.25 1013.09 1012.93 1012.73 1012.53 1012.37 1012.17 1012.05 1011.93 1011.85 1011.81 1011.77 1011.73 1011.69 1011.61 1011.49 1011.29
1019.85 1019.77 1019.65 1019.61 1019.53 1019.49 1019.37 1019.25 1019.17 1019.05 1018.93 1018.81 1018.65 1018.53 1018.45 1018.37 1018.25 1018.09 1017.93 1017.77 1017.65 1017.53 1017.37 1017.17 1016.97 1016.81 1016.65 1016.45 1016.33 1016.17 1016.01 1015.89 1015.65 1015.45 1015.25 1015.09 1014.97 1014.81 1014.65 1014.53 1014.45 1014.37 1014.33 1014.33 1014.21 1014.09 1013.93 1013.85 1013.69 1013.53 1013.37 1013.17 1012.97 1012.81 1012.61 1012.45 1012.29 1012.09 1011.93 1011.81 1011.69 1011.61 1011.53 1011.49 1011.41 1011.33 1011.21 1011.09 1010.93
1019.81 1019.73 1019.65 1019.57 1019.49 1019.41 1019.33 1019.21 1019.09 1018.97 1018.81 1018.69 1018.61 1018.49 1018.37 1018.21 1018.09 1017.97 1017.81 1017.65 1017.49 1017.37 1017.21 1017.01 1016.81 1016.65 1016.45 1016.29 1016.13 1015.97 1015.81 1015.69 1015.49 1015.33 1015.09 1014.93 1014.81 1014.65 1014.53 1014.37 1014.21 1014.13 1014.09 1014.05 1013.93 1013.85 1013.73 1013.57 1013.41 1013.25 1013.09 1012.89 1012.73 1012.57 1012.37 1012.21 1012.01 1011.85 1011.65 1011.49 1011.37 1011.25 1011.13 1011.05 1010.93 1010.81 1010.73 1010.61 1010.53
1019.77 1019.73 1019.65 1019.53 1019.49 1019.37 1019.21 1019.13 1019.01 1018.89 1018.73 1018.61 1018.49 1018.37 1018.21 1018.09 1017.93 1017.81 1017.73 1017.57 1017.41 1017.21 1017.05 1016.85 1016.69 1016.53 1016.33 1016.21 1016.01 1015.81 1015.65 1015.49 1015.37 1015.17 1014.93 1014.77 1014.57 1014.41 1014.25 1014.17 1014.05 1013.93 1013.81 1013.73 1013.65 1013.57 1013.45 1013.33 1013.17 1013.01 1012.89 1012.69 1012.53 1012.37 1012.21 1011.97 1011.73 1011.49 1011.25 1011.09 1010.93 1010.81 1010.69 1010.57 1010.45 1010.33 1010.21 1010.09 1010.01
1019.73 1019.65 1019.57 1019.49 1019.41 1019.29 1019.17 1019.05 1018.93 1018.81 1018.65 1018.53 1018.37 1018.21 1018.09 1017.93 1017.81 1017.65 1017.53 1017.41 1017.25 1017.09 1016.93 1016.73 1016.53 1016.37 1016.21 1016.09 1015.93 1015.69 1015.49 1015.29 1015.09 1014.93 1014.73 1014.53 1014.37 1014.17 1014.05 1013.93 1013.85 1013.73 1013.57 1013.45 1013.37 1013.29 1013.21 1013.05 1012.89 1012.77 1012.65 1012.45 1012.25 1012.05 1011.81 1011.65 1011.45 1011.21 1010.93 1010.77 1010.61 1010.45 1010.33 1010.21 1010.05 1009.89 1009.77 1009.65 1009.53
1019.69 1019.61 1019.49 1019.41 1019.29 1019.21 1019.09 1018.93 1018.81 1018.65 1018.49 1018.37 1018.21 1018.09 1017.93 1017.81 1017.65 1017.49 1017.37 1017.21 1017.09 1016.93 1016.81 1016.61 1016.41 1016.25 1016.09 1015.89 1015.73 1015.53 1015.33 1015.09 1014.81 1014.61 1014.45 1014.29 1014.17 1013.97 1013.81 1013.69 1013.57 1013.41 1013.29 1013.17 1013.09 1013.05 1012.93 1012.77 1012.57 1012.37 1012.21 1012.09 1011.85 1011.61 1011.37 1011.17 1010.97 1010.81 1010.65 1010.49 1010.29 1010.09 1009.93 1009.81 1009.65 1009.57 1009.41 1009.25 1009.09
1019.65 1019.53 1019.41 1019.33 1019.21 1019.05 1018.93 1018.81 1018.65 1018.49 1018.37 1018.21 1018.09 1017.93 1017.81 1017.65 1017.49 1017.37 1017.21 1017.05 1016.89 1016.77 1016.61 1016.45 1016.25 1016.09 1015.89 1015.69 1015.49 1015.33 1015.13 1014.93 1014.65 1014.41 1014.21 1014.09 1013.93 1013.81 1013.69 1013.49 1013.29 1013.13 1013.01 1012.97 1012.85 1012.77 1012.61 1012.45 1012.25 1012.09 1011.85 1011.65 1011.41 1011.17 1010.93 1010.77 1010.65 1010.53 1010.37 1010.21 1010.01 1009.81 1009.57 1009.37 1009.25 1009.13 1009.05 1008.89 1008.77
1019.57 1019.45 1019.33 1019.21 1019.09 1018.93 1018.81 1018.65 1018.49 1018.33 1018.21 1018.05 1017.93 1017.81 1017.65 1017.49 1017.37 1017.21 1017.01 1016.81 1016.69 1016.57 1016.45 1016.25 1016.09 1015.89 1015.65 1015.49 1015.25 1015.09 1014.89 1014.73 1014.53 1014.29 1014.09 1013.89 1013.69 1013.57 1013.45 1013.29 1013.09 1012.93 1012.85 1012.81 1012.65 1012.45 1012.29 1012.13 1011.93 1011.81 1011.61 1011.37 1011.09 1010.85 1010.65 1010.53 1010.37 1010.25 1010.09 1009.93 1009.73 1009.49 1009.21 1008.97 1008.81 1008.65 1008.53 1008.41 1008.33
1019.49 1019.37 1019.21 1019.09 1018.93 1018.81 1018.61 1018.45 1018.33 1018.17 1018.01 1017.85 1017.73 1017.57 1017.45 1017.29 1017.17 1017.01 1016.81 1016.65 1016.53 1016.37 1016.21 1016.05 1015.85 1015.65 1015.45 1015.21 1015.01 1014.81 1014.65 1014.53 1014.33 1014.17 1013.97 1013.77 1013.53 1013.37 1013.17 1013.01 1012.81 1012.73 1012.65 1012.53 1012.33 1012.13 1011.97 1011.81 1011.61 1011.45 1011.29 1011.13 1010.93 1010.65 1010.41 1010.21 1010.01 1009.89 1009.73 1009.53 1009.29 1009.09 1008.85 1008.65 1008.41 1008.21 1008.09 1007.93 1007.85
1019.45 1019.29 1019.09 1018.93 1018.77 1018.57 1018.41 1018.29 1018.13 1017.97 1017.81 1017.69 1017.53 1017.37 1017.29 1017.13 1016.97 1016.81 1016.65 1016.45 1016.29 1016.17 1015.97 1015.81 1015.65 1015.45 1015.21 1014.97 1014.77 1014.61 1014.49 1014.33 1014.13 1013.93 1013.77 1013.53 1013.37 1013.17 1012.93 1012.77 1012.57 1012.45 1012.33 1012.17 1012.01 1011.85 1011.65 1011.49 1011.33 1011.17 1011.01 1010.85 1010.65 1010.45 1010.21 1009.93 1009.73 1009.53 1009.33 1009.13 1008.93 1008.69 1008.49 1008.29 1008.09 1007.81 1007.65 1007.53 1007.45
1019.37 1019.17 1018.97 1018.81 1018.57 1018.37 1018.21 1018.09 1017.93 1017.81 1017.65 1017.53 1017.37 1017.21 1017.09 1016.93 1016.77 1016.57 1016.41 1016.25 1016.09 1015.93 1015.73 1015.57 1015.37 1015.21 1015.05 1014.81 1014.61 1014.41 1014.25 1014.09 1013.93 1013.73 1013.49 1013.29 1013.09 1012.93 1012.77 1012.53 1012.33 1012.17 1012.05 1011.93 1011.77 1011.57 1011.41 1011.25 1011.09 1010.89 1010.73 1010.61 1010.37 1010.13 1009.89 1009.65 1009.45 1009.21 1008.93 1008.77 1008.57 1008.37 1008.17 1007.93 1007.73 1007.53 1007.37 1007.17 1006.93
1019.25 1019.01 1018.81 1018.61 1018.41 1018.25 1018.09 1017.93 1017.81 1017.65 1017.49 1017.37 1017.21 1017.09 1016.89 1016.69 1016.53 1016.37 1016.21 1016.05 1015.85 1015.69 1015.57 1015.41 1015.21 1015.01 1014.81 1014.61 1014.41 1014.21 1013.97 1013.81 1013.65 1013.49 1013.29 1013.09 1012.85 1012.65 1012.45 1012.25 1012.09 1011.93 1011.81 1011.69 1011.53 1011.37 1011.17 1010.97 1010.81 1010.61 1010.45 1010.25 1010.09 1009.85 1009.65 1009.37 1009.17 1008.93 1008.65 1008.37 1008.17 1007.97 1007.77 1007.53 1007.37 1007.13 1006.93 1006.73 1006.53
1019.13 1018.89 1018.65 1018.45 1018.25 1018.09 1017.93 1017.77 1017.65 1017.49 1017.37 1017.21 1017.05 1016.89 1016.69 1016.53 1016.33 1016.17 1016.01 1015.85 1015.65 1015.49 1015.37 1015.21 1015.05 1014.81 1014.57 1014.37 1014.21 1014.01 1013.77 1013.57 1013.45 1013.29 1013.09 1012.89 1012.65 1012.41 1012.21 1012.05 1011.89 1011.77 1011.65 1011.49 1011.33 1011.13 1010.93 1010.73 1010.53 1010.33 1010.13 1009.93 1009.69 1009.49 1009.33 1009.09 1008.89 1008.65 1008.37 1008.09 1007.81 1007.65 1007.45 1007.21 1007.09 1006.89 1006.65 1006.49 1006.29
1019.01 1018.77 1018.53 1018.33 1018.09 1017.93 1017.81 1017.65 1017.49 1017.37 1017.21 1017.01 1016.85 1016.65 1016.49 1016.33 1016.17 1016.01 1015.89 1015.69 1015.49 1015.33 1015.13 1014.97 1014.77 1014.53 1014.33 1014.13 1013.93 1013.77 1013.57 1013.37 1013.21 1013.05 1012.89 1012.73 1012.53 1012.21 1012.01 1011.81 1011.65 1011.53 1011.37 1011.25 1011.09 1010.85 1010.61 1010.41 1010.21 1010.01 1009.81 1009.65 1009.45 1009.21 1009.01 1008.81 1008.57 1008.33 1008.09 1007.85 1007.65 1007.49 1007.29 1007.09 1006.93 1006.69 1006.53 1006.37 1006.17
1018.81 1018.65 1018.41 1018.21 1017.97 1017.81 1017.65 1017.49 1017.37 1017.17 1017.01 1016.85 1016.65 1016.49 1016.33 1016.13 1015.97 1015.85 1015.69 1015.57 1015.37 1015.17 1014.93 1014.73 1014.53 1014.29 1014.09 1013.93 1013.69 1013.49 1013.33 1013.17 1013.05 1012.89 1012.69 1012.53 1012.29 1012.09 1011.81 1011.65 1011.45 1011.29 1011.13 1010.93 1010.77 1010.53 1010.33 1010.13 1009.93 1009.73 1009.49 1009.29 1009.09 1008.93 1008.69 1008.53 1008.33 1008.09 1007.89 1007.69 1007.49 1007.37 1007.21 1007.01 1006.81 1006.57 1006.37 1006.13 1005.93
1018.73 1018.49 1018.21 1018.01 1017.81 1017.65 1017.49 1017.33 1017.17 1017.01 1016.81 1016.65 1016.49 1016.33 1016.17 1016.01 1015.81 1015.65 1015.49 1015.33 1015.17 1014.93 1014.73 1014.53 1014.37 1014.13 1013.93 1013.73 1013.53 1013.33 1013.13 1012.93 1012.81 1012.65 1012.53 1012.33 1012.09 1011.85 1011.65 1011.45 1011.21 1011.09 1010.89 1010.69 1010.49 1010.29 1010.09 1009.85 1009.65 1009.41 1009.21 1008.97 1008.81 1008.65 1008.45 1008.25 1008.09 1007.89 1007.65 1007.45 1007.21 1007.05 1006.89 1006.65 1006.45 1006.21 1005.97 1005.73 1005.53
1018.57 1018.29 1018.05 1017.81 1017.65 1017.49 1017.33 1017.17 1017.01 1016.85 1016.65 1016.45 1016.25 1016.09 1016.01 1015.85 1015.65 1015.49 1015.25 1015.09 1014.93 1014.73 1014.53 1014.33 1014.17 1013.93 1013.77 1013.57 1013.41 1013.21 1012.97 1012.81 1012.57 1012.41 1012.33 1012.13 1011.93 1011.65 1011.41 1011.21 1010.97 1010.81 1010.65 1010.45 1010.21 1010.01 1009.81 1009.57 1009.37 1009.13 1008.93 1008.73 1008.57 1008.41 1008.21 1008.05 1007.81 1007.57 1007.37 1007.09 1006.89 1006.69 1006.49 1006.25 1006.05 1005.81 1005.57 1005.37 1005.21
1018.33 1018.09 1017.85 1017.65 1017.49 1017.33 1017.17 1017.01 1016.85 1016.65 1016.49 1016.29 1016.13 1015.93 1015.77 1015.65 1015.49 1015.29 1015.09 1014.93 1014.69 1014.49 1014.25 1014.09 1013.93 1013.69 1013.49 1013.33 1013.17 1013.05 1012.85 1012.65 1012.41 1012.21 1012.09 1011.93 1011.77 1011.49 1011.21 1010.93 1010.69 1010.53 1010.37 1010.21 1009.97 1009.77 1009.53 1009.33 1009.09 1008.89 1008.65 1008.53 1008.37 1008.21 1007.97 1007.77 1007.49 1007.25 1007.01 1006.81 1006.53 1006.25 1006.01 1005.81 1005.61 1005.37 1005.21 1005.09 1004.89
1018.13 1017.93 1017.69 1017.49 1017.33 1017.17 1017.05 1016.89 1016.69 1016.53 1016.37 1016.17 1016.01 1015.81 1015.61 1015.45 1015.25 1015.09 1014.93 1014.81 1014.53 1014.21 1014.01 1013.85 1013.69 1013.49 1013.33 1013.13 1012.97 1012.81 1012.65 1012.53 1012.33 1012.09 1011.89 1011.69 1011.49 1011.25 1010.93 1010.65 1010.37 1010.21 1010.09 1009.93 1009.77 1009.53 1009.29 1009.09 1008.85 1008.65 1008.45 1008.25 1008.09 1007.89 1007.65 1007.45 1007.21 1006.93 1006.69 1006.41 1006.17 1005.89 1005.61 1005.37 1005.21 1005.05 1004.89 1004.77 1004.57
1017.93 1017.81 1017.65 1017.45 1017.21 1017.09 1016.93 1016.77 1016.57 1016.37 1016.21 1016.01 1015.81 1015.65 1015.49 1015.29 1015.09 1014.85 1014.73 1014.57 1014.37 1014.05 1013.77 1013.61 1013.45 1013.33 1013.17 1013.01 1012.81 1012.61 1012.49 1012.37 1012.21 1011.93 1011.69 1011.45 1011.25 1011.05 1010.77 1010.37 1010.09 1009.93 1009.81 1009.65 1009.49 1009.25 1009.05 1008.81 1008.57 1008.37 1008.21 1008.05 1007.81 1007.61 1007.37 1007.17 1006.93 1006.65 1006.41 1006.09 1005.81 1005.49 1005.33 1005.13 1004.93 1004.73 1004.53 1004.37 1004.21
1017.81 1017.65 1017.49 1017.33 1017.13 1016.97 1016.81 1016.65 1016.45 1016.25 1016.05 1015.85 1015.65 1015.49 1015.29 1015.09 1014.89 1014.65 1014.53 1014.37 1014.21 1013.93 1013.65 1013.41 1013.25 1013.09 1012.97 1012.81 1012.57 1012.37 1012.17 1012.09 1011.93 1011.81 1011.49 1011.21 1011.01 1010.81 1010.57 1010.21 1009.89 1009.65 1009.49 1009.37 1009.21 1008.97 1008.77 1008.53 1008.33 1008.09 1007.93 1007.81 1007.57 1007.37 1007.13 1006.89 1006.65 1006.37 1006.09 1005.81 1005.49 1005.25 1005.05 1004.85 1004.65 1004.45 1004.17 1003.93 1003.81
1017.69 1017.53 1017.37 1017.21 1017.05 1016.85 1016.65 1016.45 1016.29 1016.13 1015.93 1015.73 1015.49 1015.29 1015.09 1014.93 1014.69 1014.53 1014.33 1014.17 1014.01 1013.81 1013.53 1013.29 1013.09 1012.93 1012.81 1012.61 1012.37 1012.13 1011.93 1011.73 1011.65 1011.49 1011.29 1011.05 1010.81 1010.61 1010.37 1010.05 1009.69 1009.41 1009.21 1009.09 1008.93 1008.69 1008.49 1008.21 1008.01 1007.81 1007.65 1007.49 1007.33 1007.09 1006.89 1006.65 1006.37 1006.09 1005.77 1005.49 1005.25 1004.97 1004.73 1004.49 1004.29 1004.09 1003.85 1003.65 1003.49
1017.57 1017.41 1017.25 1017.09 1016.93 1016.77 1016.53 1016.29 1016.09 1015.93 1015.81 1015.61 1015.37 1015.13 1014.93 1014.73 1014.53 1014.29 1014.09 1013.93 1013.77 1013.61 1013.37 1013.13 1012.89 1012.69 1012.53 1012.41 1012.21 1011.93 1011.69 1011.45 1011.33 1011.21 1011.09 1010.81 1010.61 1010.37 1010.13 1009.81 1009.49 1009.21 1008.97 1008.81 1008.61 1008.37 1008.13 1007.93 1007.69 1007.49 1007.37 1007.21 1007.01 1006.81 1006.65 1006.41 1006.13 1005.81 1005.53 1005.25 1005.01 1004.73 1004.41 1004.09 1003.89 1003.73 1003.57 1003.41 1003.21
Wind_Speed
3 3 3 3 3 4 4 4 4 4 4 5 5 5 5 6 6 6 5 5 5 6 6 6 6 7 8 10 11 11 11 11 11 11 12 12 12 12 12 12 12 13 13 13 13 13 12 12 11 10 9 9 10 10 11 10 11 12 13 13 12 13 14 16 16 17 18 19 15
3 3 3 3 3 4 4 4 4 4 4 4 5 5 5 5 5 6 6 6 6 6 6 6 7 8 9 11 11 11 11 11 11 12 12 12 12 12 12 12 12 13 13 14 13 12 11 11 11 9 8 8 9 10 11 11 11 13 14 16 13 12 12 14 15 16 18 18 16
4 4 3 3 3 4 4 4 4 5 5 5 5 5 5 5 5 5 6 6 7 7 6 6 7 8 10 10 10 10 10 10 11 11 11 11 12 12 12 12 12 13 13 13 13 12 11 11 10 9 8 8 9 10 11 12 12 13 14 16 13 11 11 11 13 14 14 13 15
4 4 4 4 5 5 5 4 5 6 6 5 5 5 5 5 5 5 6 7 7 7 7 6 7 8 8 9 10 10 10 11 11 11 11 11 12 12 12 12 13 13 13 13 13 13 13 13 10 9 9 10 12 11 11 10 12 12 12 12 11 11 11 10 11 11 11 11 13
5 4 4 4 5 5 5 5 6 6 6 5 5 5 5 5 5 5 6 6 6 7 7 8 8 8 8 9 11 11 12 12 11 11 11 11 12 12 12 12 13 13 13 13 13 13 14 13 10 9 9 11 10 10 11 12 13 12 11 10 10 10 10 10 10 10 10 11 11
5 5 5 5 5 5 5 5 6 7 6 5 6 6 6 5 5 6 6 7 7 8 9 10 9 9 9 10 11 11 11 11 10 10 11 11 11 12 12 13 13 13 12 13 13 14 14 13 10 9 9 10 10 11 13 14 13 13 12 11 10 10 10 11 10 10 11 12 13
6 6 6 6 6 6 6 6 6 7 7 6 8 8 8 7 7 8 9 8 8 8 9 8 8 9 9 10 10 11 11 11 11 11 12 11 12 12 12 12 13 13 13 13 13 13 13 12 10 9 9 9 9 11 13 14 13 13 13 12 11 10 11 12 11 11 12 15 17
7 7 7 7 7 7 7 8 7 7 7 7 8 9 10 10 10 10 10 9 8 8 8 7 9 10 11 11 11 11 11 12 12 12 12 12 12 13 13 13 13 13 13 13 13 13 12 11 9 9 9 9 9 10 12 14 14 14 14 14 13 11 11 11 10 11 13 16 18
7 7 7 8 7 8 8 8 9 9 9 9 10 10 11 11 11 11 10 9 8 8 8 8 10 11 12 12 12 12 12 11 12 12 12 12 13 13 13 12 13 13 13 12 12 13 13 10 9 9 9 9 9 10 12 14 15 16 15 15 14 13 13 13 13 14 15 16 17
8 8 8 8 8 8 9 9 9 10 10 10 11 11 11 11 10 10 9 8 8 9 9 10 11 11 12 12 12 12 11 11 11 12 12 12 13 13 13 12 12 13 13 12 12 12 12 11 10 11 11 11 12 13 14 14 15 16 16 13 13 15 16 16 16 17 17 16 16
9 9 8 8 9 9 9 9 9 9 10 10 11 11 11 10 10 10 9 8 9 10 11 11 11 12 12 12 11 11 11 11 11 11 12 13 13 13 13 13 13 13 13 13 12 11 11 10 11 13 14 13 14 14 15 15 16 17 16 15 15 17 18 18 17 17 16 16 17
9 9 9 9 9 9 9 9 9 9 9 10 10 10 10 10 10 10 10 10 11 11 11 11 11 12 12 11 11 11 11 12 12 13 13 13 14 14 14 14 14 14 14 14 12 11 10 11 12 14 15 16 14 13 14 16 16 16 17 17 17 17 18 18 17 15 14 15 16
10 10 9 9 9 9 9 9 9 9 9 10 10 10 10 10 10 10 11 11 11 11 10 11 11 11 11 11 11 11 11 12 13 13 13 14 14 14 14 14 14 14 14 14 12 11 11 12 14 15 16 16 15 14 15 16 16 16 17 17 17 18 17 17 16 15 15 16 17
10 10 10 10 10 9 9 9 8 8 9 10 10 10 9 10 10 10 10 11 11 11 11 11 10 10 10 11 12 12 13 13 14 14 15 15 14 15 14 13 13 13 13 13 13 13 13 14 15 16 17 17 17 17 17 17 17 17 17 17 17 17 17 17 16 15 15 16 17
11 10 10 10 10 9 9 9 8 8 9 10 10 9 9 9 10 10 10 11 11 11 11 10 10 10 11 12 13 14 14 14 15 15 15 16 15 15 15 14 12 12 12 13 13 14 14 15 15 16 17 18 18 18 18 18 17 17 17 17 17 17 17 17 16 15 15 16 17
11 11 11 10 10 10 9 9 8 8 9 9 10 10 10 9 9 10 10 11 11 10 10 11 11 11 12 12 13 14 14 15 15 15 16 16 16 16 15 15 12 11 11 13 14 14 14 14 15 16 17 18 18 19 18 18 18 18 18 18 18 18 18 17 16 15 15 15 17
11 11 11 11 11 11 10 10 9 9 9 10 10 10 10 10 9 10 10 11 11 11 12 13 12 12 12 13 13 13 14 14 14 15 15 15 16 16 16 15 13 11 11 11 13 14 14 14 15 15 17 18 18 18 18 18 18 18 18 18 18 18 17 17 15 15 15 15 17
12 12 11 11 11 11 11 11 10 10 11 11 11 11 10 10 10 10 11 11 12 12 13 14 13 13 13 14 13 13 13 14 14 15 15 16 16 16 16 16 13 12 10 10 12 13 14 15 15 16 16 17 17 17 17 18 18 18 19 19 18 17 16 15 14 14 14 16 18
12 12 12 12 12 12 12 12 12 11 11 11 11 11 11 11 12 12 12 12 12 13 14 15 14 14 14 15 14 14 13 14 15 16 16 17 17 17 17 16 14 12 11 11 11 12 13 15 16 17 17 17 17 17 17 18 18 18 18 18 17 16 14 14 14 14 16 18 19
12 12 12 12 12 12 12 12 12 12 12 11 12 12 12 12 13 13 13 13 13 14 14 15 15 15 15 15 16 15 14 13 15 16 17 17 17 17 16 16 14 12 11 11 11 12 13 15 17 18 18 18 18 18 18 18 18 18 17 16 15 15 14 14 15 16 17 19 19
12 12 12 12 12 12 12 12 12 12 12 12 13 13 13 13 13 13 14 14 14 14 15 15 15 16 16 16 16 16 15 14 15 16 17 16 17 16 16 15 13 12 10 10 10 11 13 14 16 17 17 17 17 17 17 18 18 18 18 17 16 16 16 17 17 18 18 18 19
12 12 12 12 12 12 12 12 12 12 13 13 13 13 13 13 13 14 14 14 14 15 15 15 16 16 16 16 17 17 16 15 15 15 16 16 16 16 15 14 13 11 11 10 11 11 12 13 14 15 15 15 15 15 16 17 18 19 19 19 19 19 19 19 19 19 18 18 19
12 12 11 11 12 12 12 12 12 13 13 13 13 13 13 14 14 14 14 14 14 14 15 15 15 16 16 16 17 17 17 16 16 16 16 16 16 16 16 14 13 12 11 10 10 10 10 11 11 12 12 13 14 15 16 17 17 17 17 18 19 19 19 19 19 19 19 19 19
12 12 11 10 11 12 12 12 13 13 13 13 13 13 14 14 14 14 14 15 15 15 15 14 14 15 16 17 17 17 17 17 17 17 17 17 17 16 16 15 13 12 11 9 9 10 11 11 10 11 11 11 12 14 15 15 14 14 15 16 17 18 18 18 19 18 18 19 19
12 12 12 12 12 12 12 12 13 13 13 13 13 14 14 14 14 14 14 15 15 15 15 16 15 15 15 15 16 16 16 16 17 17 17 17 17 17 16 15 14 12 9 8 13 16 19 18 15 13 12 12 14 14 14 13 12 12 13 13 14 16 17 18 19 19 19 19 18
13 13 13 13 13 13 13 13 13 13 13 13 14 14 14 14 14 14 15 15 15 16 16 16 15 15 14 14 15 15 15 15 15 16 17 17 18 17 16 15 13 11 9 9 15 20 22 24 23 20 17 14 14 14 13 12 12 12 13 14 15 16 17 17 18 18 18 18 17
13 13 13 13 13 13 13 13 13 13 14 14 14 14 14 14 14 14 15 15 16 16 15 15 14 14 14 13 14 15 15 14 15 16 17 17 18 18 17 15 13 10 9 13 19 22 24 25 26 25 22 17 15 13 13 12 13 13 14 14 15 16 17 18 18 17 17 17 17
14 13 13 13 13 14 13 13 13 14 14 14 14 14 14 15 15 15 15 15 15 15 14 13 13 12 11 11 13 15 16 16 16 16 16 16 17 18 17 16 14 13 13 18 22 24 25 26 26 26 25 21 16 14 12 13 13 13 13 14 14 15 16 16 16 16 16 16 16
14 14 14 14 14 14 14 14 14 14 14 14 14 15 15 15 15 15 16 16 16 15 14 12 11 11 11 12 14 15 16 17 16 15 15 16 17 17 17 17 16 17 19 22 24 25 26 26 27 27 26 25 18 14 11 11 12 12 13 12 12 13 14 15 15 15 16 16 17
14 14 14 14 14 14 14 14 14 14 14 14 14 15 15 15 15 16 16 16 16 15 14 12 12 13 14 15 15 16 16 15 15 15 16 17 18 18 18 18 17 17 19 22 24 26 26 26 26 26 26 26 22 16 12 11 12 13 13 13 14 15 17 17 18 18 18 17 17
14 14 14 14 14 15 14 14 14 14 14 14 14 15 15 15 16 16 16 16 15 15 15 15 16 17 17 17 16 16 16 16 15 15 16 17 18 18 19 19 19 18 19 22 24 25 26 26 26 26 26 27 22 17 13 12 13 13 13 13 14 15 16 16 16 16 17 16 16
14 14 14 14 15 15 15 15 15 15 15 15 15 16 16 16 16 16 15 15 15 16 16 16 17 17 18 17 17 17 17 16 16 16 16 17 18 19 19 19 19 18 19 22 24 25 26 26 26 27 27 27 23 18 15 13 13 13 13 13 14 15 14 13 13 14 15 16 16
14 14 14 14 15 15 15 15 15 15 15 15 16 16 16 16 16 15 15 15 15 15 16 17 17 17 17 17 17 17 17 17 17 17 18 18 19 19 20 19 17 18 19 23 24 25 26 26 27 27 27 28 23 18 15 13 12 11 11 12 13 13 14 15 15 15 17 18 18
14 14 14 14 15 15 15 15 15 15 15 16 16 16 16 16 16 16 15 14 14 15 15 16 16 16 16 16 17 17 17 16 16 17 18 19 19 20 20 18 15 16 19 23 25 26 27 27 27 27 28 27 21 16 13 14 13 12 13 14 15 16 16 17 18 19 20 20 19
14 14 14 14 14 15 15 15 15 16 16 16 16 16 16 16 16 16 16 15 15 15 15 15 15 15 15 16 16 17 17 18 18 18 18 19 19 20 20 19 17 19 22 25 26 27 27 27 27 28 27 24 17 14 13 14 14 15 16 17 17 17 17 17 17 18 19 19 19
14 14 15 15 15 15 15 16 16 16 16 16 16 16 16 16 16 15 15 16 16 16 16 16 15 16 16 16 16 16 17 18 18 19 19 18 19 20 20 20 20 21 23 25 26 27 27 27 28 27 26 21 15 12 12 13 13 14 16 17 17 18 18 18 17 17 17 17 17
14 14 15 15 15 16 16 16 16 16 16 16 16 16 16 16 16 15 15 15 15 16 16 16 16 16 16 17 16 16 17 17 18 19 19 19 19 19 20 21 21 21 23 24 26 27 27 27 27 27 24 18 14 13 12 12 11 12 14 16 17 18 18 17 16 16 16 16 16
14 14 15 15 16 16 16 16 16 16 17 17 16 16 16 16 15 15 14 14 15 16 16 16 16 16 17 17 17 17 17 17 18 18 19 19 19 19 20 21 21 21 21 23 25 26 27 27 27 26 23 18 15 13 12 11 11 12 13 14 15 16 17 15 14 13 14 15 17
14 14 15 15 16 16 16 16 16 17 17 17 17 16 16 16 15 14 14 14 14 15 16 17 17 17 17 17 17 17 18 18 18 18 19 19 19 20 21 22 21 21 21 23 25 26 27 26 26 26 24 19 15 12 11 10 12 13 14 14 14 14 15 13 12 12 13 15 18
15 15 15 15 16 16 16 17 17 16 16 16 17 17 16 16 15 15 14 14 14 15 16 16 17 17 17 17 17 18 18 18 18 18 19 19 20 21 22 21 21 21 22 23 25 25 26 26 26 26 23 18 14 12 11 11 12 13 13 13 12 11 11 11 11 11 11 13 16
14 15 15 15 16 16 16 17 17 16 16 16 16 16 16 15 15 15 15 14 15 15 15 15 17 18 18 17 17 17 18 19 19 19 19 20 20 20 20 20 21 21 21 22 23 24 25 25 25 25 24 18 14 12 10 10 11 13 13 13 11 10 10 10 10 11 11 12 13
Wind_Direction
305 301 299 300 298 296 294 292 290 289 289 292 295 296 296 294 292 291 290 288 286 286 286 286 286 286 287 288 289 289 288 287 284 281 278 274 271 269 266 264 261 258 255 253 252 251 250 248 247 246 245 243 245 245 244 243 242 242 241 240 240 240 240 239 239 238 238 237 237
315 309 301 295 292 291 291 291 287 285 285 288 291 294 294 293 293 292 290 289 287 286 286 286 286 287 288 290 291 291 290 289 288 286 282 279 275 272 269 266 263 261 259 257 255 254 252 249 247 246 244 242 242 242 242 240 240 241 242 241 241 241 240 240 240 239 239 239 238
319 314 307 298 295 293 293 292 292 293 294 293 292 291 289 286 286 286 287 287 287 287 286 285 286 288 289 291 292 292 292 291 290 289 286 282 279 275 272 268 266 264 262 260 257 256 254 252 250 248 245 242 241 241 242 241 239 240 241 241 241 240 240 241 241 240 240 240 239
320 317 312 306 304 302 300 297 298 299 300 298 293 289 285 281 279 280 282 285 287 286 285 286 289 291 293 294 295 294 293 292 291 289 287 284 281 278 275 272 269 267 264 262 260 258 257 256 255 252 249 247 245 244 243 242 240 240 241 241 241 241 241 242 241 241 241 242 240
319 318 314 308 308 306 302 297 298 299 298 295 291 287 283 278 278 280 282 286 286 288 289 292 293 294 294 294 294 294 293 293 291 289 286 284 282 280 278 275 272 270 268 265 263 261 260 259 258 255 253 252 249 247 246 246 245 245 245 244 243 242 243 244 243 243 243 244 242
318 315 311 307 306 304 300 296 297 296 295 291 287 284 282 279 280 282 285 286 288 290 292 293 291 290 290 291 292 293 293 293 290 288 286 285 283 281 280 277 275 273 271 269 267 265 263 261 259 257 255 254 254 252 251 250 250 250 249 249 247 246 246 246 246 245 245 245 245
312 310 309 309 309 306 303 301 299 296 293 287 285 284 285 286 287 288 289 289 289 290 290 289 288 289 290 292 292 292 292 292 290 288 286 285 283 282 281 279 277 275 274 273 271 269 266 262 260 258 256 255 255 254 253 252 252 253 253 253 251 250 250 250 250 249 248 249 249
307 309 310 312 310 308 306 305 302 298 293 287 286 287 289 290 291 291 291 289 288 288 289 289 290 291 291 292 292 291 291 290 289 288 286 285 285 284 283 282 281 278 276 275 274 272 269 266 262 260 259 257 256 256 255 254 254 255 255 256 256 255 253 252 252 251 251 252 252
309 312 313 311 309 308 307 305 301 297 293 288 288 289 290 291 291 290 290 288 289 290 291 290 291 292 292 291 290 290 290 289 288 288 287 286 286 286 285 284 283 281 279 278 276 274 272 268 263 261 260 259 259 260 260 259 258 258 258 258 259 258 257 256 255 254 254 254 253
313 313 312 310 308 307 306 303 298 294 291 288 288 289 290 290 289 289 289 290 291 291 291 290 292 292 292 292 291 290 289 288 288 288 287 286 286 285 284 284 283 282 282 281 280 278 276 272 268 265 263 262 263 264 264 263 262 261 260 260 260 261 261 259 258 258 258 257 255
311 310 309 306 306 305 303 300 296 293 291 289 290 291 291 291 291 291 291 292 291 290 290 291 293 293 293 292 291 290 290 289 289 288 288 287 286 285 284 283 282 281 281 281 281 280 278 275 272 271 269 268 268 268 268 266 265 263 262 262 262 262 262 261 260 260 260 261 260
307 306 304 301 301 301 299 297 295 293 291 291 292 293 294 294 295 296 296 294 292 292 293 295 294 294 293 292 292 292 291 291 290 289 288 288 287 286 285 283 281 281 280 280 280 279 277 274 274 273 273 273 272 271 271 270 269 267 265 265 264 263 263 262 261 261 261 261 262
305 303 301 300 300 299 298 296 294 293 293 293 295 296 297 298 299 299 299 297 297 298 298 299 297 295 294 293 294 294 294 293 292 291 289 288 287 286 285 283 281 280 280 280 280 279 278 277 277 276 276 276 275 274 273 273 272 271 269 268 266 265 264 263 262 262 262 262 261
303 302 302 302 302 301 299 297 296 295 295 296 297 299 300 301 302 301 301 300 301 301 301 300 298 297 296 297 297 296 295 294 293 291 290 288 287 286 285 283 280 279 279 279 279 279 279 279 279 279 278 278 277 276 276 275 273 272 271 270 268 267 266 265 265 264 263 262 262
304 303 304 304 304 302 301 300 298 297 297 298 300 302 303 303 304 304 304 303 303 302 301 301 300 300 299 299 298 296 295 294 293 292 291 290 289 288 287 285 281 278 277 278 279 279 279 279 279 279 279 279 279 278 277 276 274 272 271 269 268 268 267 267 266 264 263 261 262
306 306 307 306 306 305 304 303 301 300 301 301 303 304 304 303 304 304 304 303 303 302 301 301 301 301 300 298 297 297 296 295 294 293 292 291 291 290 289 288 284 280 278 278 278 279 279 278 279 279 279 279 279 278 278 276 275 273 271 269 268 268 267 267 266 264 262 261 261
307 308 308 308 307 306 306 305 304 302 302 302 303 302 302 302 303 303 303 303 302 302 301 301 301 300 299 298 297 297 296 295 294 293 293 292 292 291 290 288 285 281 277 275 276 277 277 277 277 277 278 278 277 277 276 275 274 272 271 270 268 267 267 266 264 263 262 261 261
309 309 309 309 308 307 306 305 303 301 301 300 300 300 300 301 301 302 301 301 301 300 300 300 299 298 297 297 297 296 295 295 294 293 292 292 291 290 289 287 284 281 277 273 273 273 275 276 276 276 276 276 275 274 274 274 273 273 272 271 269 268 266 264 262 261 261 261 261
309 310 310 309 309 307 306 304 302 301 300 299 299 299 299 300 300 300 300 300 299 299 300 299 298 297 296 296 296 295 295 294 293 293 292 291 290 289 288 287 285 281 277 274 272 272 273 275 276 277 277 277 276 275 274 274 274 274 273 272 271 269 266 264 261 260 260 261 262
309 310 310 310 308 306 304 302 301 300 300 299 299 299 300 300 300 299 299 299 300 299 299 298 297 297 296 296 296 296 295 294 293 292 291 291 290 289 288 287 285 281 277 273 272 271 272 274 276 277 278 278 277 277 276 276 275 274 273 272 270 268 265 262 260 259 258 259 260
309 309 309 308 306 304 302 301 300 300 299 299 299 299 299 299 299 299 299 299 299 299 298 297 297 297 297 297 297 297 296 294 293 292 291 290 289 288 287 286 284 281 277 273 271 270 270 272 274 276 277 277 276 276 275 275 275 274 273 272 271 268 266 264 262 260 258 257 257
309 308 308 306 304 302 300 299 299 299 298 298 298 298 299 299 299 299 299 299 299 298 298 297 297 298 298 298 298 297 296 294 292 291 290 290 289 288 288 287 285 283 280 276 273 271 270 270 271 272 272 273 272 271 270 271 271 272 272 272 271 270 268 267 266 264 262 259 257
308 307 306 304 302 300 299 298 298 298 297 297 298 298 299 299 299 299 299 299 298 298 298 298 298 298 298 297 296 295 295 293 292 290 290 289 290 290 290 290 287 284 281 278 275 272 271 271 269 267 266 266 266 265 265 265 266 267 268 268 268 268 268 267 266 265 263 261 260
307 307 305 302 301 299 298 297 297 297 297 297 298 298 299 299 299 299 299 299 298 298 298 298 297 297 297 296 294 293 293 292 292 292 291 291 292 292 292 291 288 284 281 279 278 278 278 278 276 273 271 268 267 267 267 266 265 264 264 265 266 267 268 268 267 266 264 262 262
307 306 303 301 299 298 297 297 297 297 297 297 298 298 298 299 299 300 299 299 299 299 299 298 297 297 296 294 293 292 291 291 292 293 294 294 293 293 293 292 289 287 284 281 282 283 284 285 284 283 281 279 278 278 277 275 272 269 268 267 267 269 271 272 271 269 267 264 262
307 305 302 300 298 297 296 296 296 296 296 297 298 298 298 299 299 299 299 299 299 299 299 299 298 297 295 294 293 293 292 292 293 294 295 295 295 294 293 291 290 288 285 282 284 286 287 287 287 286 286 285 285 284 283 280 276 273 271 270 269 271 273 274 273 271 269 267 264
306 303 301 299 297 296 296 296 296 297 297 298 298 299 299 300 300 300 299 299 299 300 299 298 298 297 295 294 294 294 294 294 294 294 294 294 294 294 293 291 290 288 285 285 287 289 289 290 290 290 289 288 287 285 283 282 279 276 274 271 271 272 273 273 273 272 271 271 268
303 301 299 298 297 296 296 297 297 298 298 299 300 300 300 300 299 299 299 299 300 300 300 298 298 297 296 295 295 295 295 295 294 294 293 292 292 292 292 292 291 290 289 290 292 293 293 293 293 292 292 291 288 284 281 280 279 278 276 274 273 273 273 274 274 275 274 273 271
299 298 297 297 296 297 298 298 299 299 300 300 300 300 300 299 299 299 299 300 301 301 301 300 299 298 296 296 296 296 295 294 294 293 293 293 293 292 292 292 292 292 293 295 295 295 295 294 293 293 292 291 289 286 282 280 279 278 277 275 273 273 273 274 275 275 274 271 269
297 297 297 297 297 297 298 299 300 300 301 300 300 300 300 299 300 300 300 301 301 301 300 300 299 297 296 295 295 295 295 294 294 294 294 294 294 293 293 293 294 294 295 296 296 294 294 293 293 292 292 292 290 287 282 280 279 278 277 275 273 273 274 275 274 273 271 270 269
295 296 297 297 297 298 298 300 300 301 301 300 300 300 300 300 300 300 301 301 301 300 299 298 296 295 295 295 295 295 295 295 295 295 295 294 294 295 295 295 295 295 295 295 294 293 293 293 293 293 293 292 291 289 284 280 279 278 277 276 276 276 276 276 274 274 274 274 276
295 296 297 297 297 298 299 300 301 301 301 300 300 300 300 300 300 300 301 301 300 299 299 298 297 297 296 296 296 295 296 296 296 296 296 296 296 296 296 296 296 295 294 295 294 294 294 294 294 294 294 293 292 289 286 283 281 280 280 280 281 282 282 282 282 282 284 285 286
296 296 296 296 297 298 299 301 301 301 301 301 300 300 300 300 300 300 300 299 299 299 299 299 298 298 298 298 298 297 297 296 296 297 297 297 297 297 297 297 296 295 295 295 295 295 295 295 295 295 295 295 293 291 288 287 285 285 285 286 287 287 287 286 286 286 287 287 285
295 296 296 296 297 299 300 301 302 302 302 301 300 300 300 300 301 300 300 299 299 298 298 298 297 297 297 297 297 298 298 298 298 298 298 299 298 298 297 297 295 295 295 296 296 296 297 297 297 297 297 297 295 293 291 291 289 288 288 287 287 285 284 282 281 281 281 280 279
294 295 297 298 299 300 301 302 303 303 302 301 301 301 300 300 300 300 300 300 300 298 297 297 296 296 296 296 297 297 298 299 299 299 299 299 299 298 297 296 295 295 296 297 297 298 298 298 298 298 298 298 297 295 292 291 289 287 286 286 285 283 280 276 275 275 275 276 276
294 297 299 300 301 302 303 303 303 303 302 301 301 301 301 300 300 300 300 301 300 299 298 297 297 297 297 298 298 298 299 299 300 300 300 299 298 298 297 297 296 296 297 298 299 299 299 299 299 299 299 299 297 294 291 289 287 285 284 283 282 281 279 276 274 274 274 274 274
297 299 301 302 302 302 303 303 303 302 301 301 301 301 301 301 301 300 301 301 300 299 299 299 299 299 299 300 299 299 299 299 299 299 299 299 298 298 298 297 297 298 298 299 299 299 299 299 299 299 299 298 296 293 291 288 286 284 283 282 281 280 279 278 277 275 273 272 272
301 302 302 302 302 302 302 302 301 301 300 300 300 300 301 301 300 301 301 301 300 300 300 300 300 300 300 301 300 299 298 298 299 299 299 299 299 299 299 298 298 298 299 299 299 299 299 298 298 298 298 297 295 293 291 288 286 284 283 282 281 280 279 279 277 274 272 270 272
302 302 301 301 300 300 300 300 300 300 300 300 300 300 300 300 300 301 301 300 300 300 300 300 300 300 300 301 300 299 299 299 298 299 299 299 299 299 299 299 298 298 298 299 299 298 298 297 297 297 297 296 295 293 290 287 285 284 284 282 281 279 278 276 274 273 273 274 277
302 301 301 300 300 299 299 299 299 299 299 300 300 300 300 300 300 300 300 299 299 300 300 299 299 300 300 301 301 300 300 300 299 299 299 299 299 299 299 298 297 297 298 298 298 297 297 296 296 297 297 296 295 292 289 287 286 285 284 281 279 277 276 275 275 277 279 281 281
301 300 300 299 299 298 298 298 298 299 299 299 299 299 299 300 299 300 300 300 301 300 300 298 299 300 301 302 301 301 300 300 300 300 300 300 299 299 298 298 297 297 297 297 297 296 296 296 296 297 298 297 295 293 290 288 285 284 283 281 280 279 280 283 284 284 284 284 283